loading
DOY 203 | 2024-07-21T11:38:19Z

FIREFLY ALPHA R/B, 60210

Orbit data source: Space-Track

FIREFLY ALPHA R/B, 60210 is space debris in LEO originally from a launch on Thu, 04 Jul 2024 UTC launched from the Air Force Western Test Range (AFWTR). Debris objects in space refer to the collection of defunct objects orbiting the Earth. Examples of debris include non-operational satellites, rocket bodies, and fragments generated from explosions, collisions, or faulty payload assembly.

Loading next visibility...
Loading greatness...
FIREFLY ALPHA R/B details
NORAD ID60210
COSPAR ID
2024-125H
Orbit
LEO
Last TLE update4 days ago
Origin
Flag of USFirefly (US)
ManufacturerFirefly
BusFirefly A2
MotorUnknown
Mass909 kg wet, 909 kg dry
Launch date (UTC)
2024-07-04 (2 weeks ago)
Launch vehicleUnknown
Launch site
Air Force Western Test Range (AFWTR)
Object type
Payload
Rocket body
Debris
Radar Cross SectionSmall (<0.1 m²)
Predictive object data (real-time)
Latitude-4.92662°
Longitude-104.06336°
Altitude454.841 km
Speed7.658 km/s
Apparent Right ascension14h 28m 01s
Apparent Declination-23° 25' 04"
Sunlit
Object is in full shadow
Predictive observer data (real-time)
Local Sidereal Time00:36:46
Azimuth296.769° NW
Elevation-61.346°
Doppler factor1
Orbital elements
Apogee517.086 km
Perigee447.953 km
Semi-major axis6,860.657 km
Eccentricity0.0050384
Inclination97.3142°
RAAN52.9811°
Arg. of periapsis207.5181°
True anomaly152.60545°
Mean anomaly152.3389°
Mean motion3.8194 °/min
BSTAR0.00046733
Period94.26 mins
Definitive object data (Epoch: 2024-07-17T03:01:00.016Z)
Latitude-0.00004°
Longitude72.29634°
Altitude519.343 km
Speed7.587 km/s
True Right ascension03h 31m 55s
True Declination0° 00' 00"
Sunlit
Object was in daylight at TLE epoch
TLE from 4 days ago
0 FIREFLY ALPHA R/B
1 60210U 24125H   24199.12569463  .00012684  00000-0  46733-3 0  9991
2 60210  97.3142  52.9811 0050384 207.5181 152.3389 15.26739557  1964
Epoch: 2024-07-17T03:01Z
No data available

FIREFLY ALPHA R/B Visibility forecast

Observer location: 39.9160978°, -105.1181434

FIREFLY ALPHA R/B is not visible in the next 10 days
Span
Click to sort rows by Start time (UTC) header in descending order
Start Az.
Max El. time (UTC)
Max El. Az.
Max El.
End time (UTC)
End Az.